Paynesville, MN

5:09 PM CST on November 23, 2017 (GMT -0600)
Paynesville

Weather History for KPEX - January, 2013

Change the Weather History Date:

Friday, January 4, 2013

  Actual Average (KLJF) Record (KLJF)
Temperature  
Mean Temperature 15 °F -  
Max Temperature 27 °F 18 °F 42 °F (2001)
Min Temperature 3 °F 0 °F -26 °F (1968)
Degree Days  
Heating Degree Days 50    
Moisture  
Dew Point 11 °F    
Average Humidity 80    
Maximum Humidity 92    
Minimum Humidity 63    
Precipitation  
Precipitation 0.00 in - - ()
Sea Level Pressure  
Sea Level Pressure 30.04 in    
Wind  
Wind Speed 8 mph (WSW)    
Max Wind Speed 16 mph    
Max Gust Speed 22 mph    
Visibility 10 miles    
Events      
Averages and records for this station are not official NWS values.
T = Trace of Precipitation, MM = Missing Value Source: NWS Daily Summary

Daily Weather History Graph

Daily Weather History Graph

Search for Another Location

Airport or City:

Trip Planner

Search our weather history database for the weather conditions in past years. The results will help you decide how hot, cold, wet, or windy it might be!

Date:

Astronomy

Jan. 04, 2013 Rise Set
Actual Time 7:58 AM CST 4:50 PM CST
Civil Twilight 7:24 AM CST 5:23 PM CST
Nautical Twilight 6:47 AM CST 6:01 PM CST
Astronomical Twilight 6:11 AM CST 6:36 PM CST
Moon No Moon Rise 11:19 AM CST (1/4)
Length of Visible Light 9h 59m
Length of Day
8h 51m
Waning Gibbous, 55% of the Moon is Illuminated
Jan 4
Waning Gibbous
Jan 4
Last Quarter
Jan 11
New
Jan 18
First Quarter
Jan 26
Full

Hourly Weather History & Observations

Time (CST) Temp. Windchill Dew Point Humidity Pressure Visibility Wind Dir Wind Speed Gust Speed Precip Events Conditions
12:13 AM 18.7 °F 5.7 °F 14.0 °F 82% 30.02 in 10.0 mi WSW 12.7 mph - N/A   Clear
12:33 AM 19.0 °F 5.0 °F 14.0 °F 81% 30.01 in 10.0 mi WSW 15.0 mph - N/A   Clear
12:53 AM 18.9 °F 4.8 °F 13.8 °F 81% 30.02 in 10.0 mi WSW 15.0 mph - N/A   Clear
1:13 AM 17.6 °F 3.7 °F 13.1 °F 83% 30.01 in 10.0 mi WSW 13.8 mph - N/A   Clear
1:33 AM 18.0 °F 3.6 °F 13.3 °F 82% 30.00 in 10.0 mi WSW 15.0 mph - N/A   Clear
1:53 AM 18.0 °F 3.6 °F 13.6 °F 83% 29.99 in 10.0 mi WSW 15.0 mph - N/A   Clear
2:13 AM 18.1 °F 4.4 °F 13.5 °F 82% 29.99 in 10.0 mi WSW 13.8 mph - N/A   Clear
2:33 AM 19.2 °F 4.7 °F 14.0 °F 80% 29.98 in 10.0 mi WSW 16.1 mph 21.9 mph N/A   Clear
2:53 AM 18.9 °F 5.3 °F 13.8 °F 81% 29.98 in 10.0 mi WSW 13.8 mph - N/A   Clear
3:13 AM 18.0 °F 6.1 °F 13.3 °F 82% 29.99 in 10.0 mi WSW 10.4 mph - N/A   Clear
3:33 AM 17.4 °F 6.2 °F 12.7 °F 82% 29.98 in 10.0 mi WSW 9.2 mph - N/A   Clear
3:53 AM 16.0 °F 5.3 °F 11.7 °F 83% 29.98 in 10.0 mi West 8.1 mph - N/A   Clear
4:13 AM 15.1 °F 4.2 °F 11.3 °F 85% 29.97 in 10.0 mi West 8.1 mph - N/A   Clear
4:33 AM 14.7 °F 5.9 °F 10.6 °F 84% 29.97 in 10.0 mi West 5.8 mph - N/A   Clear
5:13 AM 15.8 °F 4.2 °F 11.3 °F 82% 29.98 in 10.0 mi West 9.2 mph - N/A   Clear
5:33 AM 15.1 °F 4.2 °F 10.0 °F 80% 29.99 in 10.0 mi WSW 8.1 mph - N/A   Clear
6:13 AM 14.5 °F 4.6 °F 9.9 °F 82% 30.00 in 10.0 mi WSW 6.9 mph - N/A   Clear
6:33 AM 12.7 °F 2.4 °F 8.2 °F 82% 30.00 in 10.0 mi West 6.9 mph - N/A   Clear
6:53 AM 12.7 °F 1.4 °F 8.1 °F 82% 30.01 in 10.0 mi WSW 8.1 mph - N/A   Clear
7:13 AM 14.2 °F 3.1 °F 8.8 °F 79% 30.01 in 10.0 mi WSW 8.1 mph - N/A   Clear
7:33 AM 11.8 °F 2.5 °F 7.5 °F 83% 30.01 in 10.0 mi West 5.8 mph - N/A   Clear
7:53 AM 14.2 °F 3.1 °F 9.5 °F 82% 30.02 in 10.0 mi WSW 8.1 mph - N/A   Clear
8:13 AM 13.5 °F 4.4 °F 8.4 °F 80% 30.02 in 10.0 mi WSW 5.8 mph - N/A   Clear
8:33 AM 14.4 °F 4.3 °F 9.1 °F 80% 30.03 in 10.0 mi West 6.9 mph - N/A   Clear
8:54 AM 14.9 °F 5.0 °F 9.3 °F 79% 30.03 in 10.0 mi West 6.9 mph - N/A   Clear
9:13 AM 14.9 °F 6.1 °F 9.5 °F 79% 30.04 in 10.0 mi West 5.8 mph - N/A   Clear
9:33 AM 16.5 °F 6.9 °F 10.4 °F 77% 30.05 in 10.0 mi West 6.9 mph - N/A   Clear
9:53 AM 18.0 °F 8.7 °F 11.3 °F 75% 30.06 in 10.0 mi West 6.9 mph - N/A   Clear
10:13 AM 19.0 °F 11.1 °F 12.0 °F 74% 30.06 in 10.0 mi West 5.8 mph - N/A   Clear
10:33 AM 19.9 °F 12.1 °F 12.6 °F 73% 30.07 in 10.0 mi WSW 5.8 mph - N/A   Clear
10:53 AM 20.8 °F 11.2 °F 13.1 °F 72% 30.07 in 10.0 mi WSW 8.1 mph - N/A   Clear
11:13 AM 22.1 °F 12.0 °F 13.8 °F 70% 30.07 in 10.0 mi West 9.2 mph - N/A   Clear
11:33 AM 22.6 °F 13.4 °F 14.0 °F 69% 30.07 in 10.0 mi West 8.1 mph - N/A   Clear
11:53 AM 23.4 °F 15.2 °F 14.7 °F 70% 30.06 in 10.0 mi West 6.9 mph - N/A   Clear
12:13 PM 24.3 °F 18.4 °F 15.1 °F 68% 30.06 in 10.0 mi WSW 4.6 mph - N/A   Clear
12:33 PM 24.8 °F 16.9 °F 15.8 °F 69% 30.06 in 10.0 mi West 6.9 mph - N/A   Clear
12:53 PM 25.5 °F 17.8 °F 16.3 °F 68% 30.05 in 10.0 mi West 6.9 mph - N/A   Clear
1:13 PM 26.2 °F 17.1 °F 16.5 °F 67% 30.05 in 10.0 mi West 9.2 mph - N/A   Clear
1:33 PM 26.6 °F 20.0 °F 16.9 °F 67% 30.05 in 10.0 mi West 5.8 mph - N/A   Clear
1:53 PM 26.8 °F 22.8 °F 16.9 °F 66% 30.05 in 10.0 mi WNW 3.5 mph - N/A   Clear
2:13 PM 27.5 °F 22.2 °F 16.5 °F 63% 30.05 in 10.0 mi West 4.6 mph - N/A   Clear
2:33 PM 27.3 °F 20.9 °F 16.3 °F 63% 30.05 in 10.0 mi WNW 5.8 mph - N/A   Clear
2:53 PM 26.8 °F - 16.3 °F 65% 30.06 in 10.0 mi Calm Calm - N/A   Clear
3:13 PM 25.7 °F - 16.0 °F 67% 30.06 in 10.0 mi Calm Calm - N/A   Clear
3:33 PM 24.8 °F 19.1 °F 16.2 °F 70% 30.07 in 10.0 mi SW 4.6 mph - N/A   Clear
3:53 PM 23.5 °F - 15.4 °F 71% 30.08 in 10.0 mi Calm Calm - N/A   Clear
4:13 PM 21.4 °F - 14.7 °F 75% 30.08 in 10.0 mi Calm Calm - N/A   Clear
4:33 PM 24.3 °F - 15.8 °F 70% 30.08 in 10.0 mi Calm Calm - N/A   Clear
5:33 PM 16.7 °F - 12.2 °F 82% 30.09 in 10.0 mi Calm Calm - N/A   Clear
5:53 PM 16.7 °F - 12.4 °F 83% 30.09 in 10.0 mi Calm Calm - N/A   Clear
6:13 PM 13.8 °F 8.0 °F 11.1 °F 89% 30.09 in 10.0 mi West 3.5 mph - N/A   Clear
6:33 PM 12.9 °F - 9.9 °F 88% 30.08 in 10.0 mi Calm Calm - N/A   Clear
6:53 PM 14.9 °F - 11.7 °F 87% 30.08 in 10.0 mi Calm Calm - N/A   Clear
7:13 PM 11.7 °F - 8.6 °F 88% 30.08 in 10.0 mi Calm Calm - N/A   Clear
7:33 PM 9.3 °F - 7.5 °F 92% 30.08 in 10.0 mi Calm Calm - N/A   Clear
8:13 PM 7.0 °F - 4.3 °F 89% 30.08 in 10.0 mi Calm Calm - N/A   Clear
8:33 PM 7.7 °F -0.9 °F 5.5 °F 91% 30.08 in 10.0 mi SSW 4.6 mph - N/A   Clear
8:53 PM 11.3 °F - 9.0 °F 90% 30.08 in 10.0 mi Calm Calm - N/A   Clear
9:13 PM 7.5 °F - 5.2 °F 90% 30.07 in 10.0 mi Calm Calm - N/A   Clear
9:33 PM 8.6 °F - 6.4 °F 91% 30.06 in 10.0 mi Calm Calm - N/A   Clear
9:53 PM 7.7 °F - 5.7 °F 92% 30.06 in 10.0 mi Calm Calm - N/A   Clear
10:13 PM 7.7 °F - 5.7 °F 92% 30.06 in 10.0 mi Calm Calm - N/A   Clear
10:33 PM 9.5 °F - 7.7 °F 92% 30.06 in 10.0 mi Calm Calm - N/A   Clear
11:13 PM 3.7 °F - 0.7 °F 87% 30.06 in 10.0 mi Calm Calm - N/A   Clear
11:33 PM 4.8 °F - 2.1 °F 89% 30.06 in 10.0 mi Calm Calm - N/A   Clear
11:53 PM 6.1 °F - 3.4 °F 89% 30.05 in 10.0 mi Calm Calm - N/A   Clear